Regional Weather Roundup
Issued by NWS

Home | Current Version | Previous Version | Text Only | Print | Product List | Glossary Off
Versions: 1 2 3 4 5 6 7 8 9 10 11 12 13 14 15 16 17 18 19 20 21 22 23 24 25 26 27 28 29 30 31 32 33 34 35 36 37 38 39 40 41 42 43 44 45 46 47 48 49 50

000
ASUS43 KLSX 102007
RWRMO

WEATHER SUMMARY FOR MISSOURI
NATIONAL WEATHER SERVICE SPRINGFIELD MO
200 PM CST SUN DEC 10 2017

NOTE: "FAIR" INDICATES FEW OR NO CLOUDS BELOW 12,000 FEET WITH NO
       SIGNIFICANT WEATHER AND/OR OBSTRUCTIONS TO VISIBILITY.
       CURRENT SKY AND/OR WEATHER CONDITIONS ARE NOT AVAILABLE FOR
       CHILLICOTHE AND FARMINGTON.

MOZ001>031-035>038-043-044-053-054-102100-
...NORTHERN AND WESTERN MISSOURI...

CITY           SKY/WX    TMP DP  RH WIND       PRES   REMARKS
KANSAS CTY INT MOSUNNY   55  25  31 W13       30.10F
KANSAS C DTWN  SUNNY     56  26  31 W13       30.09F
LEE`S SUMMIT   SUNNY     55  26  32 W13       30.09F
ST JOSEPH      SUNNY     54  27  35 NW14      30.11S
CHILLICOTHE      N/A     52  25  35 W9        30.07F
KIRKSVILLE     SUNNY     49  25  39 NW16      30.03R

$$
MOZ066>068-077>081-088>096-101>105-102100-
...SOUTHWEST MISSOURI...

CITY           SKY/WX    TMP DP  RH WIND       PRES   REMARKS
SPRINGFIELD    SUNNY     54  24  31 NW13G26   30.12R
JOPLIN         SUNNY     57  25  29 W15       30.16F
BRANSON        MOSUNNY   55  23  28 W15       30.13F

$$
MOZ032>034-039>042-045>050-055>058-069>072-102100-
...CENTRAL MISSOURI...

CITY           SKY/WX    TMP DP  RH WIND       PRES   REMARKS
COLUMBIA       SUNNY     52  25  35 W16       30.04S
JEFFERSON CITY SUNNY     52  24  33 W18       30.05S
ROLLA          SUNNY     53  25  33 W16G23    30.05R
SEDALIA        SUNNY     54  27  35 NW16      30.09S
WHITEMAN AFB   MOSUNNY   54  24  31 W10       30.05R
WARRENSBURG    SUNNY     54  25  32 W10       30.09S
OSAGE BEACH    SUNNY     54  26  34 NW9G17    30.08S

$$
MOZ051-052-059>065-102100-
...EAST CENTRAL MISSOURI...

CITY           SKY/WX    TMP DP  RH WIND       PRES   REMARKS
ST LOUIS INTL  MOSUNNY   51  25  36 W17       30.00
SPIRIT OF STL  SUNNY     52  25  35 W13       30.00R
ST CHARLES     SUNNY     50  25  37 W18       29.99F

$$
MOZ072>076-082>087-097>100-106>115-102100-
...SOUTH CENTRAL AND SOUTHEAST MISSOURI...

CITY           SKY/WX    TMP DP  RH WIND       PRES   REMARKS
CAPE GIRARDEAU SUNNY     49  29  46 SW14G23   30.05F
FARMINGTON     SUNNY     56  24  29 W9G17     30.01R
POPLAR BLUFF   SUNNY     51  30  44 SW13      30.08F
WEST PLAINS    SUNNY     58  23  26 W14G23    30.08F

$$



USA.gov is the U.S. government's official web portal to all federal, state and local government web resources and services.